Location: Lane
(33.5226°N, 79.8788°W)
Time: 11:22:38
(UTC+00:00)

Altair - Pass Details

Date: 08 October 2022
Orbit: 1501 x 1682 km, 47.2° (Epoch: 30 November)

Event Time Altitude Azimuth Distance (km) Brightness Sun altitude
Rises 10:22:30 0° 269° (W) 4,750 - -12.6°
Reaches altitude 10° 10:25:49 10° 276° (W) 3,792 - -11.9°
Exits shadow 10:26:46 13° 279° (W) 3,534 8.7 -11.7°
Maximum altitude 10:34:51 42° 345° (NNW) 2,202 8.2 -10.0°
Drops below altitude 10° 10:44:13 10° 54° (NE) 3,919 10.5 -8.0°
Sets 10:47:43 0° 62° (ENE) 4,922 11.3 -7.3°
